Showing default

COSMOS 2211, 22182

Orbit data source: Space-Track

COSMOS 2211, 22182 is a payload satellite owned by VKS (CIS) in LEO that was launched on Tue, 20 Oct 1992 UTC via a TSIKLON-3 launch vehicle from the Plesetsk Missile And Space Complex (PKMTR). Payload-class satellites include a variety of spacecraft equipped with specific instruments for various scientific and technological missions. These include communications satellites like Starlink; space stations such as the ISS; scientific satellites like the Hubble; Earth observation satellites from companies like Planet Labs, Umbra, and HawkEye 360; GPS; miniature CubeSats for education and research; and military/defense satellites.

Loading next visibility...
Identifier
22182, 1992-068A
Orbit
LEO
Country
Flag of CISCIS
Related business
Manufacturer
NPO PM
Mission
Defense Communications
Bus & Motor
STRELA-3, Unknown motor
Mass
225 kg wet, 225 kg dry
Launch date (UTC)
1992-10-20 (33 years ago)
Launch vehicle
TSIKLON-3
Launch site
Plesetsk Missile And Space Complex (PKMTR)
Object type
Payload
Rocket body
Debris
Shape & HBR
Cyl, 0.8 m
Radar Cross Section
1.257 m², Large (>1 m²)

Expand to show TLE details & history
Last TLE update: 11 hours ago

TLE from 11 hours ago
0 COSMOS 2211
1 22182U 92068A   25315.15966676  .00000045  00000-0  18927-3 0  9991
2 22182  82.5920 100.7459 0006768 287.3794 246.0362 12.64059409525191
Epoch: 2025-11-11T03:49Z
TLE epoch observation values (Epoch: 2025-11-11T03:49:55.208Z)
Latitude
6.52847°
Longitude
171.86731°
Altitude
1,410.502 km
Speed
7.155 km/s
True Right ascension
18h 39m 35s
True Declination
6° 29' 35"
Sunlit
Object was in daylight at epoch
Visualization orbit readout
Latitude
Unknown
Longitude
Unknown
Altitude
Unknown
Speed
Unknown
Apparent Right ascension
Unknown
Apparent Declination
Unknown
Sunlit
N/A
Visualization observer readout
Local Sidereal Time
11:17:23
Azimuth
Unknown
Elevation
Unknown
Doppler factor
Unknown
Orbital elements
Apogee altitude
1,408.818 km
Perigee altitude
1,398.285 km
Semi-major axis
7,781.689 km
Eccentricity
0.00068
Inclination
82.592°
RAAN
100.7459°
Arg. of periapsis
287.3794°
True anomaly
245.96535°
Mean anomaly
246.0362°
Eccentric anomaly
246.00077°
Mean motion
3.16179 °/min
Orbital period
113.86 mins
BSTAR
0.00018927
Loading maneuver chart data...
Computing Atmospheric mass density...
Loading historical data...
Loading historical data...
Loading historical data...
Loading historical data...
Loading historical data...
Loading historical data...
Loading historical data...

Documentation

Showing up to 5 results
|